Location: Franzen
(48.6167°N, 15.3833°E)
Time: 12:40:00
(UTC+00:00)

Cosmos-2242 - Pass Details

Date: 22 April 2021
Orbit: 589 x 618 km, 82.5° (Epoch: 16 May)

Event Time Altitude Azimuth Distance (km) Brightness Sun altitude
Exits shadow 19:35:48 12° 177° (S) 1,805 5.1 -14.5°
Maximum altitude 19:39:42 66° 96° (E) 661 3.0 -15.0°
Drops below altitude 10° 19:43:59 10° 15° (NNE) 1,952 6.0 -15.5°
Sets 19:46:12 0° 13° (NNE) 2,855 6.9 -15.8°
